timestamp,surface_pressure_avg,surface_temp_avg,battery_voltage,lat,long
2021-03-18 00:09:01+00:00,273.2097,1.1,12.97,47.84626,-54.09684
2021-03-18 00:19:01+00:00,279.7447,1.1,12.65,47.84626,-54.09684
2021-03-18 00:29:01+00:00,284.4047,1.0,12.65,47.84626,-54.09684
2021-03-18 00:39:01+00:00,290.843,1.0,12.65,47.84626,-54.09684
2021-03-18 00:49:01+00:00,295.7914,0.95,12.65,47.84626,-54.09684
2021-03-18 00:59:01+00:00,300.6531,0.9,12.65,47.84626,-54.09684
2021-03-18 01:09:01+00:00,306.0497,0.92,12.65,47.84626,-54.09684
2021-03-18 01:19:01+00:00,308.7663,0.92,12.57,47.84626,-54.09684
2021-03-18 01:29:01+00:00,310.4263,0.92,12.57,47.84626,-54.09684
2021-03-18 01:39:01+00:00,313.7781,0.95,12.57,47.84626,-54.09684
2021-03-18 01:49:01+00:00,319.3114,0.97,12.57,47.84626,-54.09684
2021-03-18 01:59:01+00:00,319.9698,0.97,12.57,47.84626,-54.09684
2021-03-18 02:09:01+00:00,320.8347,0.98,12.57,47.84626,-54.09684
2021-03-18 02:19:01+00:00,323.8496,0.99,12.57,47.84626,-54.09684
2021-03-18 02:29:01+00:00,322.1747,0.99,12.57,47.84626,-54.09684
2021-03-18 02:39:01+00:00,321.2947,0.99,12.57,47.84626,-54.09684
2021-03-18 02:49:01+00:00,322.1163,1.0,12.57,47.84626,-54.09684
2021-03-18 02:59:01+00:00,323.96299999999997,1.0,12.57,47.84626,-54.09684
2021-03-18 03:09:01+00:00,320.5247,0.99,12.57,47.84626,-54.09684
2021-03-18 03:19:01+00:00,318.6946,0.98,12.57,47.84626,-54.09684
2021-03-18 03:29:01+00:00,318.9047,0.97,12.57,47.84626,-54.09684
2021-03-18 03:39:01+00:00,317.6797,0.97,12.57,47.84626,-54.09684
2021-03-18 03:49:01+00:00,312.7063,0.97,12.57,47.84626,-54.09684
2021-03-18 03:59:01+00:00,307.5179,0.98,12.57,47.84626,-54.09684
2021-03-18 04:09:01+00:00,308.4213,0.98,12.57,47.84626,-54.09684
2021-03-18 04:19:01+00:00,304.478,0.97,12.49,47.84626,-54.09684
2021-03-18 04:29:01+00:00,298.95799999999997,0.96,12.49,47.84626,-54.09684
2021-03-18 04:39:01+00:00,294.618,0.97,12.49,47.84626,-54.09684
2021-03-18 04:49:01+00:00,291.5347,0.97,12.49,47.84626,-54.09684
2021-03-18 04:59:01+00:00,284.8597,0.92,12.49,47.84626,-54.09684
2021-03-18 05:09:01+00:00,277.8864,0.9,12.49,47.84626,-54.09684
2021-03-18 05:19:01+00:00,274.4681,0.9,12.49,47.84626,-54.09684
2021-03-18 05:29:01+00:00,271.5297,0.9,12.49,47.84626,-54.09684
2021-03-18 05:39:01+00:00,266.578,0.9,12.49,47.84626,-54.09684
2021-03-18 05:49:01+00:00,256.3664,0.9,12.49,47.84626,-54.09684
2021-03-18 05:59:01+00:00,247.5614,0.8,12.49,47.84626,-54.09684
2021-03-18 06:09:01+00:00,243.683,0.8,12.49,47.84626,-54.09684
2021-03-18 06:19:01+00:00,238.8914,0.78,12.49,47.84626,-54.09684
2021-03-18 06:29:01+00:00,227.9914,0.7,12.49,47.84626,-54.09684
2021-03-18 06:39:01+00:00,219.8648,0.6,12.49,47.84626,-54.09684
2021-03-18 06:49:01+00:00,215.6964,0.6,12.49,47.84626,-54.09684
2021-03-18 06:59:01+00:00,207.2365,0.6,12.49,47.84626,-54.09684
2021-03-18 07:09:01+00:00,195.8314,0.58,12.49,47.84626,-54.09684
2021-03-18 07:19:01+00:00,190.2298,0.57,12.41,47.84626,-54.09684
2021-03-18 07:29:01+00:00,185.4831,0.58,12.41,47.84626,-54.09684
2021-03-18 07:39:01+00:00,176.8099,0.4,12.41,47.84626,-54.09684
2021-03-18 07:49:01+00:00,171.3715,0.3,12.41,47.84626,-54.09684
2021-03-18 07:59:01+00:00,168.1948,0.28,12.41,47.84626,-54.09684
2021-03-18 08:09:01+00:00,165.2615,0.3,12.41,47.84626,-54.09684
2021-03-18 08:19:01+00:00,164.1248,0.3,12.41,47.84626,-54.09684
2021-03-18 08:29:01+00:00,166.4265,0.35,12.41,47.84626,-54.09684
2021-03-18 08:39:01+00:00,168.3615,0.41,12.41,47.84626,-54.09684
2021-03-18 08:49:01+00:00,168.6648,0.5,12.41,47.84626,-54.09684
2021-03-18 08:59:01+00:00,172.9464,0.5,12.41,47.84626,-54.09684
2021-03-18 09:09:01+00:00,180.1665,0.53,12.41,47.84626,-54.09684
2021-03-18 09:19:01+00:00,183.1514,0.6,12.41,47.84626,-54.09684
2021-03-18 09:29:01+00:00,184.4131,0.6,12.41,47.84626,-54.09684
2021-03-18 09:39:01+00:00,189.8381,0.6,12.41,47.84626,-54.09684
2021-03-18 09:49:01+00:00,194.9981,0.6,12.41,47.84626,-54.09684
2021-03-18 09:59:01+00:00,198.8198,0.64,12.41,47.84626,-54.09684
2021-03-18 10:09:01+00:00,208.7731,0.65,12.41,47.84626,-54.09684
2021-03-18 10:19:01+00:00,218.5665,0.67,12.41,47.84626,-54.09684
2021-03-18 10:29:01+00:00,221.4381,0.7,12.41,47.84626,-54.09684
2021-03-18 10:39:01+00:00,223.0664,0.7,12.41,47.84626,-54.09684
2021-03-18 10:49:01+00:00,228.5131,0.7,12.41,47.84626,-54.09684
2021-03-18 10:59:01+00:00,235.4881,0.74,12.41,47.84626,-54.09684
2021-03-18 11:09:01+00:00,237.4648,0.8,12.41,47.84626,-54.09684
2021-03-18 11:19:01+00:00,239.6731,0.8,12.57,47.84626,-54.09684
2021-03-18 11:29:01+00:00,243.3347,0.8,12.57,47.84626,-54.09684
2021-03-18 11:39:01+00:00,247.4547,0.83,12.57,47.84626,-54.09684
2021-03-18 11:49:01+00:00,250.7714,0.87,12.57,47.84626,-54.09684
2021-03-18 11:59:01+00:00,255.7498,0.89,12.57,47.84626,-54.09684
2021-03-18 12:09:01+00:00,263.0031,0.9,12.57,47.84626,-54.09684
2021-03-18 12:19:01+00:00,267.9947,0.9,12.81,47.84626,-54.09684
2021-03-18 12:29:01+00:00,270.6131,0.9,12.81,47.84626,-54.09684
2021-03-18 12:39:01+00:00,276.6047,0.9,12.81,47.84626,-54.09684
2021-03-18 12:49:01+00:00,283.9897,0.9,12.81,47.84626,-54.09684
2021-03-18 12:59:01+00:00,288.0447,0.9,12.81,47.84626,-54.09684
2021-03-18 13:09:01+00:00,289.9197,0.9,12.81,47.84626,-54.09684
2021-03-18 13:19:01+00:00,294.9797,0.9,13.84,47.84626,-54.09684
2021-03-18 13:29:01+00:00,297.4463,0.9,13.84,47.84626,-54.09684
2021-03-18 13:39:01+00:00,300.1314,0.9,13.84,47.84626,-54.09684
2021-03-18 13:49:01+00:00,302.928,0.9,13.84,47.84626,-54.09684
2021-03-18 13:59:01+00:00,306.518,0.9,13.84,47.84626,-54.09684
2021-03-18 14:09:01+00:00,310.1064,0.9,13.84,47.84626,-54.09684
2021-03-18 14:19:01+00:00,311.5114,0.9,14.72,47.84626,-54.09684
2021-03-18 14:29:01+00:00,313.873,0.9,14.72,47.84626,-54.09684
2021-03-18 14:39:01+00:00,312.6663,0.9,14.72,47.84626,-54.09684
2021-03-18 14:49:01+00:00,308.168,0.9,14.72,47.84626,-54.09684
2021-03-18 14:59:01+00:00,309.9297,0.91,14.72,47.84626,-54.09684
2021-03-18 15:09:01+00:00,311.5814,0.9,14.72,47.84626,-54.09684
2021-03-18 15:19:01+00:00,310.038,0.9,14.8,47.84626,-54.09684
2021-03-18 15:29:01+00:00,306.5347,0.9,14.8,47.84626,-54.09684
2021-03-18 15:39:01+00:00,305.153,0.9,14.8,47.84626,-54.09684
2021-03-18 15:49:01+00:00,301.5747,0.9,14.8,47.84626,-54.09684
2021-03-18 15:59:01+00:00,298.3847,0.9,14.8,47.84626,-54.09684
2021-03-18 16:09:01+00:00,299.283,0.9,14.8,47.84626,-54.09684
2021-03-18 16:19:01+00:00,298.348,0.9,14.72,47.84626,-54.09684
2021-03-18 16:29:01+00:00,296.4113,0.9,14.72,47.84626,-54.09684
2021-03-18 16:39:01+00:00,296.9347,0.9,14.72,47.84626,-54.09684
2021-03-18 16:49:01+00:00,297.9697,0.91,14.72,47.84626,-54.09684
2021-03-18 16:59:01+00:00,294.27299999999997,0.97,14.72,47.84626,-54.09684
2021-03-18 17:09:01+00:00,288.1697,1.0,14.72,47.84626,-54.09684
2021-03-18 17:19:01+00:00,283.1514,1.0,14.56,47.84626,-54.09684
2021-03-18 17:29:01+00:00,279.623,1.0,14.56,47.84626,-54.09684
2021-03-18 17:39:01+00:00,276.1664,1.0,14.56,47.84626,-54.09684
2021-03-18 17:49:01+00:00,270.6014,1.0,14.56,47.84626,-54.09684
2021-03-18 17:59:01+00:00,263.6348,1.0,14.56,47.84626,-54.09684
2021-03-18 18:09:01+00:00,255.2414,1.0,14.56,47.84626,-54.09684
2021-03-18 18:19:01+00:00,245.3331,1.02,14.24,47.84626,-54.09684
2021-03-18 18:29:01+00:00,238.0298,1.02,14.24,47.84626,-54.09684
2021-03-18 18:39:01+00:00,230.5664,1.05,14.24,47.84626,-54.09684
2021-03-18 18:49:01+00:00,220.0015,1.07,14.24,47.84626,-54.09684
2021-03-18 18:59:01+00:00,210.2431,1.09,14.24,47.84626,-54.09684
2021-03-18 19:09:01+00:00,205.4348,1.09,14.24,47.84626,-54.09684
2021-03-18 19:19:01+00:00,199.9315,1.1,14.16,47.84626,-54.09684
2021-03-18 19:29:01+00:00,193.1848,1.1,14.16,47.84626,-54.09684
2021-03-18 19:39:01+00:00,186.6831,1.1,14.16,47.84626,-54.09684
2021-03-18 19:49:01+00:00,181.1081,1.1,14.16,47.84626,-54.09684
2021-03-18 19:59:01+00:00,178.1698,1.1,14.16,47.84626,-54.09684
2021-03-18 20:09:01+00:00,176.5481,1.1,14.16,47.84626,-54.09684
2021-03-18 20:19:01+00:00,175.9065,1.1,13.84,47.84626,-54.09684
2021-03-18 20:29:01+00:00,179.7881,1.1,13.84,47.84626,-54.09684
2021-03-18 20:39:01+00:00,181.6181,1.1,13.84,47.84626,-54.09684
2021-03-18 20:49:01+00:00,181.6382,1.14,13.84,47.84626,-54.09684
2021-03-18 20:59:01+00:00,183.3282,1.2,13.84,47.84626,-54.09684
2021-03-18 21:09:01+00:00,186.8798,1.2,13.84,47.84626,-54.09684
2021-03-18 21:19:01+00:00,193.7665,1.2,13.53,47.84626,-54.09684
2021-03-18 21:29:01+00:00,199.1082,1.19,13.53,47.84626,-54.09684
2021-03-18 21:39:01+00:00,203.5548,1.19,13.53,47.84626,-54.09684
2021-03-18 21:49:01+00:00,211.0531,1.19,13.53,47.84626,-54.09684
2021-03-18 21:59:01+00:00,218.6331,1.18,13.53,47.84626,-54.09684
2021-03-18 22:09:01+00:00,221.6781,1.17,13.53,47.84626,-54.09684
2021-03-18 22:19:01+00:00,225.6464,1.18,13.13,47.84626,-54.09684
2021-03-18 22:29:01+00:00,232.7614,1.18,13.13,47.84626,-54.09684
2021-03-18 22:39:01+00:00,239.4364,1.18,13.13,47.84626,-54.09684
2021-03-18 22:49:01+00:00,241.9281,1.19,13.13,47.84626,-54.09684
2021-03-18 22:59:01+00:00,243.1114,1.19,13.13,47.84626,-54.09684
2021-03-18 23:09:01+00:00,248.8698,1.19,13.13,47.84626,-54.09684
2021-03-18 23:19:01+00:00,255.7431,1.19,12.81,47.84626,-54.09684
2021-03-18 23:29:01+00:00,258.6464,1.18,12.81,47.84626,-54.09684
2021-03-18 23:39:01+00:00,255.9164,1.19,12.81,47.84626,-54.09684
2021-03-18 23:49:01+00:00,261.9997,1.19,12.81,47.84626,-54.09684
2021-03-18 23:59:01+00:00,268.9014,1.19,12.81,47.84626,-54.09684
